Погода в Курске

Хотите узнать прогноз погоды в Курске? Тогда Вам сюда: Погода в Курске

Поиск расширенной информации на нашем сайте:

Полезная информация:

Новости сайта



02.01.2020
Опубликован Долгосрочный прогноз погоды по городам России и ближнего зарубежья на январь 2020 года.
Карты: Прогноз на январь и февраль 2020 года, Сравнение прогнозируемой аномалии приземной температуры воздуха на январь 2020 года по разным моделям.




Погода в Курске - сегодня

Время (UTC), дата Ветер
(°,м/с) 
Видим.   Явления Облачность Т
(°С)
Тd
(°С)
f(%) Тe
(°С)
Pmin
(гПа)
dP
(гПа)
Po
(мм)
O2
(г/м3)
Тmin Tmax R s Состояние
почвы
00 16.01.22 300 (СЗ) 10 км  позёмок{ливн. осадки}  10/10 600 м 
[Sc]
-2.5 -6.7 73 -4  1009.1  734  299           
03 16.01.22 280 (З) 10 км  слаб. ливневой снег  9/9 600 м кучево-дожд. 
[Cb cap]
-3 -5.2 85 -5  1010.2  0.9  734  300  -3    0.0     
06 16.01.22 300 (СЗ) 10 км  {ливн. осадки}  10/10 600 м 
[Sc]
-2 -4.1 85 -3  1011.5  1.4  735  299  -3    0.0  24  неравномерный
сухой снег
100% 
09 16.01.22 300 (СЗ) 10 км  в посл. час ливневой снег  9/8 600 м средняя 
[Sc|Ac trans]
-1.1 -4.1 80 -3  1013  1.5  737  298           
12 16.01.22 290 (З) 10 км  {ливн. осадки}  9/6 600 м средняя 
[Sc|Ac trans]
-0.8 -5.6 70 -3  1013.5  0.6  737  298           
15 16.01.22 280 (З) 10 км    9/8 600 м средняя 
[Sc|Ac trans]
-2.2 -6.6 72 -3  1015  1.3  738  300      0.2     
18 16.01.22 250 (З) 10 км    ясно 
-4.7 -8.5 75 -6  1014.6  -0.7  737  303    -0.7  0.2     
21 16.01.22 230 (ЮЗ) 10 км    ясно 
-6 -8.5 82 -7  1013.5  -1.2  737  304           
00 17.01.22 220 (ЮЗ) 10 км    8/0 верхняя 
[Ci]
-5.8 -8.3 82 -8  1011.6  -1.8  735  303           
03 17.01.22 220 (ЮЗ) 4-10{11}  10 км  позёмок  8/1 600 м средняя, верхняя 
[Sc|Ac trans|Ci fib]
-4.5 -7.5 80 -8  1007.4  -3.9  732  301  -6.5         
06 17.01.22 210 (ЮЗ) 6-13{13}  10 км  позёмок  8/3 600 м средняя 
[Sc|Ac trans]
-3.9 -6.3 83 -8  1003.2  -4  729  299  -6.5      23  неравномерный
сухой снег
100% 
09 17.01.22 210 (ЮЗ) 5{13}  2000 м  слаб. ливневой снег  10/10 300 м кучево-дожд. 
[Cb cap]
-3.6 -4.9 91 -7  999.5  -3.5  727  297           
12 17.01.22 220 (ЮЗ) 4{13}  10 км  позёмок{ливн. осадки}  10/10 600 м 
[Sc]
-2.4 -3.7 91 -5  996.5  -2.8  725  295           
15 17.01.22 200 (Ю) 4{11}  4000 м  слаб. переохл. дождь (гололёд){снег} [диам. гололёда 0 мм]  10/10 300 м 
[Frnb|Ns]
-2.4 -3.1 95 -5  993.6  -2.8  722  294         
18 17.01.22 200 (Ю) 5-10{12}  4000 м  слаб. снег{дождь} [диам. гололёда 0 мм]  10/10 300 м 
[Frnb|Ns]
-1.7 -2.5 94 -5  992.2  -1.3  721  293    -1.7     
21 17.01.22 210 (ЮЗ) 4{11}  4000 м  дымка{снег} [диам. гололёда 0 мм]  10/10 600 м 
[Sc]
-1.4 -2.2 94 -4  991.2  -0.9  721  292           
00 18.01.22 230 (ЮЗ) 4000 м  дымка{снег} [диам. гололёда 0 мм]  10/10 600 м 
[Sc]
-1 -1.6 96 -2  991.3  -0.1  721  292           
03 18.01.22 250 (З) 10 км    10/10 600 м 
[Sc]
-1.4 -3 89 -2  992.2  0.8  721  292  -1.7       
06 18.01.22 280 (З) 3{10}  10 км  слаб. ливневой снег [диам. гололёда 0 мм]  10/10 600 м кучево-дожд. 
[Cb cap]
-3 -5 86 -5  994.8  2.4  723  295  -3    0.8  24  неравномерный
сухой снег
100% 
09 18.01.22 310 (СЗ) 4000 м  слаб. ливневой снег  10/10 600 м кучево-дожд. 
[Cb cap]
-3.9 -5.9 86 -6  997.9  2.9  725  297           
12 18.01.22 330 (СЗ) 4000 м  слаб. ливневой снег  10/10 600 м кучево-дожд. 
[Cb cap]
-4.9 -6.6 88 -8  1000.8  2.7  727  299           
15 18.01.22 350 (С) 4{11}  4000 м  слаб. ливневой снег  10/10 600 м кучево-дожд. 
[Cb cap]
-5.3 -6.7 90 -9  1005  730  301         
18 18.01.22 340 (С) 4{12}  10 км  позёмок{ливн. осадки}  9/9 600 м 
[Sc]
-6.2 -8.8 82 -10  1009.8  4.5  734  303    -3     
21 18.01.22 340 (С) 4{12}  4000 м  слаб. ливневой снег  10/10 600 м кучево-дожд. 
[Cb cap]
-6.9 -9.4 82 -10  1013.6  3.6  737  305           
00 19.01.22 350 (С) 3{12}  10 км  слаб. ливневой снег  10/10 600 м кучево-дожд. 
[Cb cap]
-7.1 -10 80 -10  1016  2.3  738  306           
Время (UTC), дата Ветер
(°,м/с) 
Видим.   Явления Облачность Т
(°С)
Тd
(°С)
f(%) Тe
(°С)
Pmin
(гПа)
dP
(гПа)
Po
(мм)
O2
(г/м3)
Тmin Tmax R s Состояние
почвы

Для получения пояснительной информации подведите курсор к названию столбца.

ПОГОДА в Курске - архив

Всё, что Вы хотите узнать о погоде в Курске - удобно и подробно!

Выберите нужную дату (начиная с 1 января 2019* года) и нажмите кнопку "Найти".
Будут отображены архивные сводки погоды по пункту Курск, начиная с указанной даты.


Отображать данные в формате CSV (для использования в таблицах Excel)


Внимание! Наш архив погоды предназначен исключительно для личного некоммерческого использования в познавательных целях. Если Вам необходимы официальные справки о состоянии погоды (для производственных, юридических, коммерческих и т.п. целей), обращайтесь в органы Росгидромета.

*Примечание: данная дата относится к архиву по метеостанциям СССР (Россия, СНГ, Балтия).
Архив по метеостанциям Зарубежной Европы и Азии (кроме Китая) хранится 10 дней, по другим регионам земного шара (Китай, Африка, Америка, Австралия, Океания) - 1 день.

Курск - район местоположения метеостанции


Название, широта, долгота, высота метеостанции:
Курск 51.8°ш. 36.2°д. 247 м над ур. моря [Российская Федерация]

Дополнительная информация

В oтличие oт бoльшинства пoгoдных сайтoв мы публикуем пoдрoбную метеoинфoрмацию в детальнoм прoфессиoнальнoм фoрмате.

Характеристики температуры и влажнoсти вoздуха измеряются на высoте 2 м в тени вдали oт зданий и деревьев.
Скoрoсть ветра измеряется на высoте 10 м (на урoвне рoста челoвека скoрoсть ветра ниже в 1.5-2 раза). Если метеoстанция нахoдится в гoрoде или в лесу, тo скoрoсть ветра занижена на 2-4 м/с пo сравнению с oткрытым местoм. Скoрoсть ветра над акватoриями крупных рек и oзёр, а также на вершинах хoлмoв на 2-5 м/с выше, чем в oбычных услoвиях.
Атмoсфернoе давление в разных тoчках местнoсти мoжет значительнo oтличаться oт давления на метеoстанции, в зависимoсти oт услoвий рельефа (при пoдъёме на 10 м давление пoнижается примернo на 1 мм рт.ст.).